[[{"header":{"parameterUnit":"m.s-1","parameterCategory":1,"la1":30.2991,"la2":30.254,"lo1":-89.0895,"lo2":-89.0444,"dy":0.0017,"dx":0.0017,"nx":28,"ny":28,"refTime":"2026-02-03T03:00:00:Z","depth":0,"parameterNumber":2,"parameterNumberName":"U-component_of_WINDS"},"data":[0,0,0,0,0,0,0,0,0,0,0,0,0,0,0,0,0,0,0,0,0,0,0,0,0,0,0,0,0,0,0,0,0,0,0,0,0,0,0,0,0,0,0,0,0,0,0,0,0,0,0,0,0,0,0,0,0,0,1.038,1.0381,0,1.051,1.0511,1.0513,1.0526,1.0525,1.0523,1.0522,1.0656,1.0661,1.0666,0,0,0,0,0,0,0,0,0,0,0,0,0,1.0145,1.0149,1.038,1.0381,1.0383,1.0509,1.0511,1.0513,1.0526,1.0525,1.0523,1.0522,1.0655,1.066,1.0666,0,0,0,0,0,0,0,0,0,0,0,0,0,1.0258,1.015,1.038,1.0405,1.0409,1.0509,1.0511,1.0514,1.0527,1.0525,1.0523,1.0521,1.0653,1.066,1.0667,1.0751,0,0,1.0689,1.0692,0,0,0,0,0,0,0,0,1.0252,1.0267,1.04,1.0403,1.0408,1.05,1.0478,1.0593,1.0527,1.0482,1.0522,1.052,1.0606,1.0617,1.0646,1.0758,1.0764,1.069,1.0694,1.0697,1.0699,0,0,0,0,0,0,0,1.0244,1.0261,1.0431,1.0402,1.0406,1.041,1.0424,1.05,1.0554,1.0486,1.0487,1.0502,1.0608,1.0639,1.0649,1.0765,1.0689,1.0696,1.07,1.0703,1.0953,1.0956,0,0,0,0,0,0,1.0231,1.0254,1.0427,1.0435,1.0323,1.0416,1.0432,1.0472,1.0553,1.0563,1.0504,1.0502,1.0627,1.064,1.0654,1.0757,1.0697,1.0704,1.0708,1.0951,1.0954,1.0956,0,0,0,0,0,0,1.0226,1.0246,1.0422,1.0345,1.0368,1.0422,1.0468,1.0476,1.0507,1.0566,1.0576,1.0525,1.0626,1.0643,1.0727,1.0762,1.0707,1.0714,1.0948,1.0952,1.0955,1.0965,0,0,0,0,0,0,1.0219,1.0244,1.0277,1.0346,1.0372,1.0493,1.047,1.048,1.0519,1.0518,1.0589,1.0599,1.0626,1.0716,1.0734,1.0771,1.0719,1.0945,1.095,1.0954,1.0962,1.0969,1.0974,0,0,0,0,0,1.0211,1.0275,1.0278,1.0299,1.0413,1.0495,1.051,1.0539,1.0522,1.0555,1.0593,1.0597,1.0756,1.0724,1.0745,1.0784,1.0943,1.0949,1.0954,1.0959,1.0967,1.0974,0,0,0,0,0,0,1.0208,1.0284,1.0289,1.0377,1.0429,1.0497,1.0539,1.0547,1.0605,1.0602,1.0636,1.0652,1.0734,1.0768,1.0732,1.0871,1.0848,1.0857,1.0845,1.0853,1.0859,1.0849,1.0725,0,0,0,0,0,1.0218,1.0277,1.0341,1.0413,1.0438,1.0484,1.0521,1.0539,1.0594,1.0617,1.0661,1.0715,1.0777,1.0817,1.0878,1.0968,1.0983,1.1005,1.1011,1.1016,1.1023,1.1073,1.1083,1.0973,1.0973,1.0973,0,0,1.0239,1.0288,1.0323,1.0413,1.0456,1.0516,1.0503,1.0568,1.0613,1.0627,1.0708,1.0742,1.0805,1.0892,1.0932,1.0922,1.1057,1.1023,1.1026,1.1031,1.1079,1.109,1.1099,1.0977,1.0976,1.0976,0,0,1.0307,1.0351,1.0415,1.0458,1.0522,1.0552,1.0568,1.0634,1.0658,1.074,1.0751,1.0806,1.0912,1.0956,1.0993,1.1079,1.1084,1.1098,1.1129,1.1177,1.1186,1.1193,1.1223,1.1234,1.1105,1.1105,1.1105,0,1.0325,1.0416,1.0447,1.0511,1.0551,1.0566,1.0631,1.0672,1.0753,1.078,1.0768,1.0901,1.0945,1.1041,1.1062,1.1092,1.111,1.1089,1.1182,1.119,1.1198,1.1227,1.1238,1.1106,1.1106,1.1106,1.1106,0,1.0435,1.0498,1.0542,1.0619,1.0664,1.0729,1.0769,1.0811,1.0825,1.0857,1.094,1.0993,1.1064,1.1089,1.1104,1.1188,1.118,1.1175,1.1152,1.1209,1.1236,1.1248,1.1108,1.1107,1.1107,1.1107,0,0,1.0504,1.0598,1.0613,1.0648,1.0721,1.0771,1.0836,1.0906,1.094,1.0996,1.1052,1.1142,1.1137,1.1178,1.1199,1.1241,1.1305,1.1231,1.1233,1.1242,1.14,1.1402,1.1415,1.1309,1.1312,1.1313,1.1394,0,1.058,1.0696,1.0726,1.0825,1.0884,1.0899,1.0957,1.1007,1.1039,1.1094,1.1129,1.1192,1.1182,1.1207,1.1249,1.1288,1.1337,1.1283,1.1361,1.1363,1.1343,1.1429,1.1432,1.1506,1.1405,1.1407,1.1409,0,1.0683,1.074,1.0845,1.091,1.0936,1.0987,1.1053,1.1105,1.1163,1.1183,1.123,1.1246,1.1315,1.129,1.1386,1.1349,1.1383,1.1407,1.141,1.1418,1.1388,1.1438,1.153,1.1541,1.1426,1.1425,1.1423,0,1.0722,1.0825,1.0901,1.0931,1.1009,1.1044,1.1079,1.1135,1.1175,1.1233,1.1259,1.1324,1.136,1.1411,1.1444,1.1423,1.1537,1.1515,1.1555,1.1555,1.1578,1.1575,1.1675,1.1602,1.1602,1.1601,1.1601,0,1.0802,1.0865,1.092,1.0966,1.1038,1.1072,1.1142,1.1177,1.1227,1.1281,1.1299,1.1349,1.1392,1.1448,1.1475,1.155,1.1566,1.1584,1.1591,1.1582,1.1579,1.1604,1.1599,1.1604,1.1604,1.1603,1.1603,0,1.0856,1.0895,1.0979,1.1046,1.1065,1.1114,1.1172,1.1218,1.125,1.1318,1.1336,1.1388,1.1455,1.1494,1.1579,1.1597,1.168,1.1684,1.166,1.1662,1.17,1.1695,1.1818,1.1836,1.1751,1.1752,1.1752,0,1.0904,1.0953,1.1026,1.1063,1.1097,1.1157,1.1198,1.1234,1.1275,1.1346,1.1383,1.1452,1.1508,1.1615,1.1659,1.1725,1.173,1.1769,1.174,1.173,1.173,1.1726,1.173,1.1773,1.1774,1.1774,1.1775,0,1.0985,1.1002,1.106,1.1124,1.1172,1.1225,1.1277,1.1307,1.1352,1.1398,1.1466,1.151,1.1597,1.1664,1.1733,1.1769,1.1779,1.1784,1.1797,1.1787,1.1771,1.1779,1.1672,1.1781,1.178,1.178,1.1779,1.1779,1.1037,1.1081,1.1139,1.1202,1.1246,1.1294,1.1341,1.1379,1.1437,1.151,1.1528,1.16,1.1658,1.1751,1.1789,1.1846,1.1839,1.1858,1.1862,1.1866,1.1866,1.1763,1.1859,1.1859,1.1859,1.1859,1.1859,0,1.1117,1.1156,1.1214,1.1286,1.1337,1.1343,1.1401,1.1443,1.1506,1.1559,1.1614,1.1693,1.1758,1.1809,1.1876,1.1912,1.1919,1.1928,1.1925,1.1933,1.1869,1.1851,1.1922,1.1922,1.1922,1.1922,1.1922,1.1922,1.1165,1.124,1.1264,1.136,1.1398,1.1469,1.1501,1.1547,1.1589,1.1676,1.173,1.1763,1.1815,1.1886,1.1947,1.196,1.1984,1.1993,1.2006,1.1945,1.1938,1.1931,1.1914,1.1998,1.1998,1.2066,1.2067,1.2067]},{"header":{"parameterUnit":"m.s-1","parameterCategory":1,"la1":30.2991,"la2":30.254,"lo1":-89.0895,"lo2":-89.0444,"dy":0.0017,"dx":0.0017,"nx":28,"ny":28,"refTime":"2026-02-03T03:00:00:Z","depth":0,"parameterNumber":3,"parameterNumberName":"V-component_of_WINDS"},"data":[0,0,0,0,0,0,0,0,0,0,0,0,0,0,0,0,0,0,0,0,0,0,0,0,0,0,0,0,0,0,0,0,0,0,0,0,0,0,0,0,0,0,0,0,0,0,0,0,0,0,0,0,0,0,0,0,0,0,3.0432,3.0435,0,3.0681,3.0684,3.0687,3.071,3.0707,3.0704,3.0702,3.0956,3.0965,3.0974,0,0,0,0,0,0,0,0,0,0,0,0,0,2.9975,2.9984,3.0432,3.0435,3.0438,3.0681,3.0684,3.0688,3.071,3.0707,3.0704,3.0701,3.0953,3.0964,3.0975,0,0,0,0,0,0,0,0,0,0,0,0,0,3.0194,2.9986,3.0431,3.0479,3.0485,3.068,3.0684,3.0689,3.0711,3.0707,3.0703,3.0699,3.0949,3.0963,3.0976,3.114,0,0,3.1018,3.1024,0,0,0,0,0,0,0,0,3.0181,3.0211,3.0469,3.0476,3.0484,3.066,3.0616,3.084,3.0712,3.0625,3.0702,3.0697,3.0861,3.0881,3.0937,3.1152,3.1163,3.102,3.1028,3.1034,3.1038,0,0,0,0,0,0,0,3.0166,3.02,3.0531,3.0472,3.0482,3.0487,3.0514,3.0659,3.0762,3.0633,3.0635,3.0664,3.0864,3.0923,3.0943,3.1167,3.1019,3.1032,3.104,3.1046,3.1531,3.1535,0,0,0,0,0,0,3.0142,3.0187,3.0523,3.0538,3.032,3.0499,3.0529,3.0608,3.0761,3.078,3.0667,3.0664,3.0902,3.0927,3.0952,3.1155,3.1034,3.1047,3.1055,3.1526,3.1532,3.1537,0,0,0,0,0,0,3.0132,3.0172,3.0513,3.0364,3.0407,3.0511,3.0599,3.0615,3.0674,3.0787,3.0805,3.0709,3.09,3.0933,3.1094,3.1164,3.1053,3.1066,3.1521,3.1528,3.1534,3.1563,0,0,0,0,0,0,3.0119,3.0168,3.0232,3.0365,3.0415,3.0651,3.0604,3.0622,3.0698,3.0697,3.0831,3.0849,3.0899,3.1073,3.1107,3.1181,3.1076,3.1515,3.1524,3.1532,3.1556,3.157,3.1581,0,0,0,0,0,3.0103,3.023,3.0235,3.0275,3.0497,3.0655,3.0683,3.0739,3.0704,3.0769,3.0841,3.0845,3.1151,3.1089,3.1128,3.1207,3.1511,3.1521,3.1531,3.155,3.1567,3.1581,0,0,0,0,0,0,3.0102,3.0248,3.0256,3.0429,3.0529,3.0658,3.0742,3.0754,3.0866,3.086,3.0923,3.0954,3.1113,3.1176,3.1105,3.1375,3.1327,3.1346,3.1328,3.1345,3.1357,3.1339,3.1088,0,0,0,0,0,3.0122,3.0238,3.0359,3.0501,3.0551,3.0637,3.0708,3.0742,3.0848,3.0891,3.0975,3.1077,3.1197,3.1274,3.139,3.1565,3.1595,3.1638,3.1651,3.1661,3.1677,3.1775,3.1796,3.1571,3.157,3.157,0,0,3.0165,3.0259,3.0328,3.0503,3.0585,3.0704,3.0673,3.08,3.0889,3.091,3.1068,3.1133,3.1252,3.1421,3.1499,3.1478,3.1745,3.1674,3.1681,3.1692,3.1787,3.1809,3.1828,3.1578,3.1576,3.1575,0,0,3.0303,3.0386,3.0513,3.0596,3.072,3.0777,3.0807,3.0935,3.0979,3.1139,3.1157,3.1264,3.1468,3.1552,3.1621,3.1792,3.1801,3.1828,3.1895,3.199,3.2008,3.2024,3.2086,3.2107,3.1843,3.1843,3.1843,0,3.0341,3.0521,3.0577,3.0704,3.0781,3.0805,3.0935,3.1012,3.1168,3.122,3.1195,3.1452,3.1533,3.1723,3.1765,3.182,3.1857,3.1814,3.2001,3.2017,3.2033,3.2093,3.2116,3.1846,3.1845,3.1845,3.1845,0,3.0561,3.0686,3.0774,3.0924,3.1011,3.1138,3.1213,3.1294,3.132,3.138,3.1542,3.1641,3.1778,3.1825,3.1851,3.2019,3.2002,3.1988,3.1941,3.2056,3.2114,3.2137,3.1849,3.1849,3.1848,3.1847,0,0,3.0707,3.0887,3.0918,3.0987,3.1126,3.1224,3.1352,3.1487,3.1555,3.1661,3.1772,3.1944,3.1932,3.2011,3.2047,3.213,3.226,3.2106,3.2109,3.2132,3.2452,3.2463,3.2488,3.2266,3.227,3.2274,3.2442,0,3.0862,3.1093,3.1147,3.1345,3.1461,3.1487,3.1599,3.1696,3.1755,3.1862,3.1927,3.2049,3.2023,3.2071,3.2154,3.2227,3.2325,3.2215,3.2369,3.2374,3.234,3.2518,3.253,3.2684,3.2465,3.2469,3.2471,0,3.1075,3.1187,3.1396,3.1521,3.1571,3.1671,3.18,3.1901,3.2012,3.2049,3.2138,3.2166,3.2301,3.2246,3.2433,3.2357,3.2423,3.2468,3.2475,3.2493,3.2431,3.2542,3.2734,3.2758,3.2507,3.2504,3.2502,0,3.1162,3.1364,3.1516,3.1574,3.1723,3.1793,3.1858,3.1965,3.2043,3.2154,3.2205,3.233,3.24,3.2496,3.2557,3.2511,3.274,3.269,3.2775,3.2773,3.2823,3.2819,3.303,3.2863,3.2862,3.2862,3.2861,0,3.133,3.1458,3.1558,3.1651,3.1795,3.1856,3.1996,3.2061,3.2157,3.2263,3.2292,3.2391,3.2465,3.2575,3.2623,3.2771,3.2802,3.2836,3.2848,3.2835,3.283,3.288,3.2871,3.2868,3.2867,3.2866,3.2865,0,3.1452,3.1524,3.1692,3.1819,3.1854,3.1954,3.2063,3.2155,3.2214,3.2349,3.2384,3.2478,3.2608,3.2678,3.2841,3.2874,3.3041,3.3045,3.3004,3.3009,3.309,3.3082,3.3341,3.3379,3.3185,3.3187,3.3188,0,3.1556,3.1655,3.1793,3.1866,3.1933,3.2051,3.2131,3.2194,3.2276,3.241,3.2486,3.2618,3.2728,3.2935,3.3018,3.3143,3.3152,3.3234,3.3171,3.3155,3.3155,3.3149,3.316,3.3245,3.3247,3.3249,3.325,0,3.1732,3.1763,3.1877,3.2004,3.2098,3.2201,3.2302,3.2361,3.2441,3.2531,3.2666,3.275,3.2918,3.3049,3.3181,3.3247,3.3263,3.3269,3.3295,3.3284,3.3256,3.3274,3.3035,3.3263,3.3262,3.3261,3.326,3.3259,3.185,3.1939,3.205,3.2176,3.2259,3.2354,3.2447,3.2518,3.2631,3.2773,3.2803,3.2946,3.3054,3.3233,3.3303,3.3415,3.3399,3.3437,3.3447,3.3456,3.346,3.3237,3.3439,3.3439,3.3439,3.3439,3.3438,0,3.2029,3.2102,3.2217,3.2359,3.2458,3.2463,3.2576,3.2659,3.2784,3.2884,3.2991,3.3146,3.3274,3.3366,3.3496,3.3568,3.3579,3.36,3.3597,3.3612,3.3466,3.3431,3.359,3.359,3.359,3.359,3.359,3.359,3.2134,3.2286,3.233,3.2524,3.2596,3.2736,3.28,3.2887,3.2968,3.314,3.3246,3.3306,3.3403,3.3541,3.3658,3.3682,3.3729,3.3751,3.3775,3.3638,3.3622,3.3607,3.3574,3.376,3.376,3.3912,3.3913,3.3914]}]]